Regional Weather Roundup
Issued by NWS

Home | Current Version | Previous Version | Graphics & Text | Print | Product List | Glossary Off
Versions: 1 2 3 4 5 6 7 8 9 10 11 12 13 14 15 16 17 18 19 20 21 22 23 24 25 26 27 28 29 30 31 32 33 34 35 36 37 38 39 40 41 42 43 44 45 46 47 48 49 50

000
ASUS43 KDTX 130610
RWRMI
MICHIGAN HOURLY REGIONAL WEATHER ROUNDUP
NATIONAL WEATHER SERVICE DETROIT/PONTIAC MI
200 AM EDT SUN JUL 13 2014

NOTE: "FAIR" INDICATES FEW OR NO CLOUDS BELOW 12,000 FEET WITH NO
SIGNIFICANT WEATHER AND/OR OBSTRUCTION TO VISIBILITY.

MIZ047>049-052>055-059>063-066>070-074>076-081>083-130700-
SOUTHEAST LOWER MICHIGAN

CITY           SKY/WX    TMP DP  RH WIND       PRES   REMARKS
ADRIAN         CLOUDY    74  68  81 SW10      29.93F
6HR MIN TEMP:  74; 6HR MAX TEMP:  78;

ALMA           RAIN      70  68  93 SW8G23    29.83F
ANN ARBOR      CLOUDY    74  66  76 SW12      29.91F
BAD AXE        CLOUDY    71  68  92 SW10      29.83F
6HR MIN TEMP:  69; 6HR MAX TEMP:  72;

DETROIT CITY   CLOUDY    79  66  64 SW16G22   29.89F
6HR MIN TEMP:  78; 6HR MAX TEMP:  83; 6HR PCP: TRACE;

DETROIT        CLOUDY    76  67  73 S13       29.91F
6HR MIN TEMP:  76; 6HR MAX TEMP:  80;

FLINT          CLOUDY    76  67  73 S15G21    29.85F
6HR MIN TEMP:  75; 6HR MAX TEMP:  80; 6HR PCP: TRACE;

GROSSE ILE     CLOUDY    77  70  78 SW12G18   29.90F
HILLSDALE      LGT RAIN  73  71  93 S8        29.93F
6HR MIN TEMP:  73; 6HR MAX TEMP:  76;

HOWELL         LGT RAIN  73  67  81 S12       29.88F

CITY           SKY/WX    TMP DP  RH WIND       PRES   REMARKS
JACKSON        CLOUDY    74  68  81 S13       29.90F
6HR MIN TEMP:  74; 6HR MAX TEMP:  75; 6HR PCP: TRACE;

LAMBERTVILLE   CLOUDY    77  68  73 S8        29.93F
LANSING        RAIN      72  69  90 S15       29.85F
6HR MIN TEMP:  72; 6HR MAX TEMP:  76; 6HR PCP:  0.08;

LAPEER         NOT AVBL
MASON          RAIN      73  68  86 S6        29.87F
MONROE         CLOUDY    75  68  78 SW9       29.90F
PONTIAC        CLOUDY    74  66  76 S9        29.88F
6HR MIN TEMP:  73; 6HR MAX TEMP:  79; 6HR PCP: TRACE;

PORT HOPE        N/A     71  68  90 VRB6      29.80F
6HR MIN TEMP:  69; 6HR MAX TEMP:  74; 6HR PCP:  0.58;

PORT HURON     CLOUDY    73  68  83 S12       29.86F
TRI CITIES     LGT RAIN  73  69  87 S10       29.83F
6HR MIN TEMP:  73; 6HR MAX TEMP:  77; 6HR PCP:  0.16;

YPSILANTI      CLOUDY    79  67  66 SW13G21   29.91F
6HR MIN TEMP:  76; 6HR MAX TEMP:  83;

$$
MIZ043>046-050>051-056>058-064>065-071>073-077>080-130700-
SOUTHWEST LOWER MICHIGAN

CITY           SKY/WX    TMP DP  RH WIND       PRES   REMARKS
BATTLE CREEK   TSTM      74  70  87 SW16      29.87F
6HR MIN TEMP:  74; 6HR MAX TEMP:  75; 6HR PCP:  0.04;

BENTON HARBOR  LGT RAIN  71  69  93 W23G38    29.88R FOG
6HR MIN TEMP:  73; 6HR MAX TEMP:  76; 6HR PCP: TRACE;

BIG RAPIDS     LGT RAIN  70  70 100 SW5       29.80F
6HR MIN TEMP:  70; 6HR MAX TEMP:  72; 6HR PCP:  0.03;

COLDWATER      LGT RAIN  74  70  88 SW7       29.91F
6HR MIN TEMP:  74; 6HR MAX TEMP:  76;

HOLLAND        LGT RAIN  73  70  90 W25G39    29.83S
6HR MIN TEMP:  73; 6HR MAX TEMP:  78; 6HR PCP:  0.34;

GRAND RAPIDS   RAIN      76  75  97 SW18G30   29.80F FOG
6HR MIN TEMP:  73; 6HR MAX TEMP:  76; 6HR PCP:  1.12;

KALAMAZOO      RAIN      75  71  87 SW13      29.87F
6HR MIN TEMP:  73; 6HR MAX TEMP:  75; 6HR PCP:  0.05;

MARSHALL       RAIN      73  69  89 S10G17    29.88F
MUSKEGON       LGT RAIN  72  69  90 W6        29.79F
6HR MIN TEMP:  71; 6HR MAX TEMP:  73; 6HR PCP:  1.67;

$$
MIZ016>042-130700-
NORTHERN LOWER MICHIGAN

CITY           SKY/WX    TMP DP  RH WIND       PRES   REMARKS
ALPENA         LGT RAIN  68  67  96 VRB3      29.76F FOG
6HR MIN TEMP:  68; 6HR MAX TEMP:  73; 6HR PCP:  0.44;

BEAVER ISLAND  CLOUDY    59  59 100 CALM      29.78F
6HR MIN TEMP:  59; 6HR MAX TEMP:  65;

BELLAIRE       LGT RAIN  67  66  94 CALM      29.78F
6HR MIN TEMP:  67; 6HR MAX TEMP:  76;

CADILLAC       RAIN      67  67 100 S3        29.81F
CHARLEVOIX     FOG       65  65  98 CALM      29.82S VSB 1
6HR MIN TEMP:  65; 6HR MAX TEMP:  68;

FRANKFORT      CLOUDY    63  60  92 CALM      29.81R FOG
GAYLORD        LGT RAIN  66  65  96 CALM      29.79F
6HR MIN TEMP:  65; 6HR MAX TEMP:  73; 6HR PCP:  0.71;

GRAYLING       LGT RAIN  68  68 100 W7        29.82S
6HR MIN TEMP:  68; 6HR MAX TEMP:  70;

HARBOR SPRINGS DRZL/FOG  64  64  99 CALM      29.76F VSB 1/4
HOUGHTON LAKE  LGT RAIN  70  68  93 W8        29.81F FOG
6HR MIN TEMP:  70; 6HR MAX TEMP:  72; 6HR PCP:  0.25;

MANISTEE       CLOUDY    64  63  94 CALM      29.80F
OSCODA         LGT RAIN  72  69  91 SW13G18   29.77F
PELLSTON       LGT RAIN  67  66  97 VRB3      29.78F FOG
6HR MIN TEMP:  66; 6HR MAX TEMP:  75; 6HR PCP:  0.08;

TRAVERSE CITY  CLOUDY    68  66  93 W3        29.78F FOG
6HR MIN TEMP:  68; 6HR MAX TEMP:  75; 6HR PCP:  0.58;

$$
MIZ007>008-015-130700-
EASTERN UPPER MICHIGAN

CITY           SKY/WX    TMP DP  RH WIND       PRES   REMARKS
KINROSS        CLOUDY    64  64 100 CALM      29.76F
6HR MIN TEMP:  64; 6HR MAX TEMP:  73;

MACKINAC ISLAN CLOUDY    65  65  99 CALM      29.77F FOG
6HR MIN TEMP:  64; 6HR MAX TEMP:  67;

NEWBERRY       CLOUDY    59  59  99 SW6       29.76F FOG
6HR MIN TEMP:  59; 6HR MAX TEMP:  68;

S. S. MARIE    CLOUDY    65  62  90 SE3       29.76F
6HR MIN TEMP:  65; 6HR MAX TEMP:  74; 6HR PCP: TRACE;

$$
MIZ004>006-011>014-085-130700-
CENTRAL UPPER MICHIGAN

CITY           SKY/WX    TMP DP  RH WIND       PRES   REMARKS
MANISTIQUE     MOCLDY    56  56  98 SE3       29.76F FOG
ESCANABA       CLEAR     63  57  82 NW10      29.77F
6HR MIN TEMP:  61; 6HR MAX TEMP:  70;

MENOMINEE      CLEAR     61  59  94 CALM      29.81S
6HR MIN TEMP:  61; 6HR MAX TEMP:  77; 6HR PCP:  0.07;

SAWYER-GWINN   PTCLDY    63  61  93 W3        29.80S
6HR MIN TEMP:  63; 6HR MAX TEMP:  66;

$$
MIZ001>003-009>011-084-130700-
WESTERN UPPER MICHIGAN

CITY           SKY/WX    TMP DP  RH WIND       PRES   REMARKS
IRON MOUNTAIN  CLEAR     63  60  90 W8        29.81F
6HR MIN TEMP:  63; 6HR MAX TEMP:  69; 6HR PCP: TRACE;

HOUGHTON       CLEAR     60  54  80 W9        29.77F
6HR MIN TEMP:  56; 6HR MAX TEMP:  64; 6HR PCP:  0.01;

COPPER HARBOR    N/A     63  52  67 VRB5      29.74F
6HR MIN TEMP:  53; 6HR MAX TEMP:  64;

IRONWOOD       CLEAR     64  57  77 SW9       29.81F
6HR MIN TEMP:  61; 6HR MAX TEMP:  66;

$$

ABBREVIATIONS USED IN REMARKS
   TC - TEMPERATURE IN CELSIUS
  WCI - WIND CHILL INDEX
   HX - HEAT INDEX
  VSB - VISIBILITY




USA.gov is the U.S. government's official web portal to all federal, state and local government web resources and services.